EW5123 Weather Reports


Display with metric or nautical units.
time (UTC)temp
F
wind
direction
speed
MPH
gust
MPH
rain 1hr
in
rain 24hr
in
rain mn
in
humidity
%
barometer
mb
20260905053008 69 231 0.0 4.0 0.00 0.00 0.00 48 984.3
20260905052508 69 196 1.0 4.0 0.00 0.00 0.00 49 984.3
20260905052006 69 210 1.0 5.0 0.00 0.00 0.00 50 984.3
20260905051506 69 182 1.0 7.0 0.00 0.00 0.00 51 984.1
20260905051006 69 185 2.0 7.0 0.00 0.00 0.00 51 984.3
20260905050505 69 153 2.0 7.0 0.00 0.00 0.00 50 984.3
20260905050005 69 198 2.0 7.0 0.00 0.00 0.00 49 984.3
20260905045507 68 198 2.0 6.0 0.00 0.00 0.00 49 984.3
20260905045005 68 210 3.0 6.0 0.00 0.00 0.00 50 984.1
20260905044511 68 205 2.0 5.0 0.00 0.00 0.00 50 984.0
20260905044506 68 149 3.0 5.0 0.00 0.00 0.00 50 984.1
20260905043506 68 205 2.0 6.0 0.00 0.00 0.00 50 984.1
20260905043006 68 177 2.0 7.0 0.00 0.00 0.00 50 984.3
20260905042505 68 144 2.0 7.0 0.00 0.00 0.00 50 984.1
20260905042006 68 173 1.0 5.0 0.00 0.00 0.00 49 984.1
20260905041511 68 207 1.0 5.0 0.00 0.00 0.00 48 984.1
20260905041506 68 198 1.0 5.0 0.00 0.00 0.00 49 984.3
20260905040506 69 158 0.0 4.0 0.00 0.00 0.00 47 984.1
20260905040005 69 165 1.0 4.0 0.00 0.00 0.00 46 984.1
20260905035505 69 141 2.0 6.0 0.00 0.00 0.00 45 984.1
20260905035011 70 172 2.0 6.0 0.00 0.00 0.00 45 984.1
20260905035006 70 181 2.0 6.0 0.00 0.00 0.00 45 984.0
20260905034011 69 172 0.0 6.0 0.00 0.00 0.00 45 984.1
20260905034005 70 151 1.0 6.0 0.00 0.00 0.00 45 984.1
20260905033005 69 160 1.0 4.0 0.00 0.00 0.00 46 984.0
20260905032505 69 129 1.0 4.0 0.00 0.00 0.00 46 984.1
20260905032005 69 166 0.0 4.0 0.00 0.00 0.00 46 984.0
20260905031506 69 183 0.0 3.0 0.00 0.00 0.00 46 983.9
20260905031006 69 193 0.0 2.0 0.00 0.00 0.00 46 983.9
20260905030506 70 179 0.0 2.0 0.00 0.00 0.00 46 983.9
20260905030005 70 177 0.0 0.0 0.00 0.00 0.00 45 983.9
20260905025505 70 151 0.0 0.0 0.00 0.00 0.00 44 983.7
20260905025005 70 139 0.0 0.0 0.00 0.00 0.00 44 983.7
20260905024505 69 172 0.0 3.0 0.00 0.00 0.00 45 983.7
20260905024005 70 191 0.0 3.0 0.00 0.00 0.00 45 983.5
20260905023505 70 159 0.0 0.0 0.00 0.00 0.00 45 983.5
20260905023005 70 148 0.0 0.0 0.00 0.00 0.00 44 983.4
20260905022506 71 202 0.0 1.0 0.00 0.00 0.00 44 983.3
20260905022005 71 146 0.0 1.0 0.00 0.00 0.00 43 983.3
20260905021505 71 147 0.0 1.0 0.00 0.00 0.00 43 983.3
20260905021005 72 166 0.0 2.0 0.00 0.00 0.00 43 983.2
20260905020506 72 197 0.0 3.0 0.00 0.00 0.00 43 983.2
20260905020009 73 185 0.0 3.0 0.00 0.00 0.00 42 983.1
20260905020006 72 148 0.0 3.0 0.00 0.00 0.00 43 983.2
20260905015005 74 256 0.0 2.0 0.00 0.00 0.00 41 983.0
20260905014506 75 131 0.0 4.0 0.00 0.00 0.00 39 983.0
20260905014005 76 140 0.0 4.0 0.00 0.00 0.00 37 982.8
20260905013507 76 155 0.0 1.0 0.00 0.00 0.00 36 982.8
20260905013006 76 272 0.0 1.0 0.00 0.00 0.00 36 982.8
20260905012504 75 9 0.0 4.0 0.00 0.00 0.00 37 982.7
20260905012003 75 239 0.0 4.0 0.00 0.00 0.00 41 982.6
20260905011503 77 170 0.0 3.0 0.00 0.00 0.00 38 982.7
20260905011004 78 184 0.0 2.0 0.00 0.00 0.00 36 982.6
20260905010503 78 160 0.0 0.0 0.00 0.00 0.00 34 982.6
20260905010004 79 338 0.0 1.0 0.00 0.00 0.00 33 982.5
20260905005504 79 253 0.0 5.0 0.00 0.00 0.00 31 982.5
20260905005004 80 134 1.0 5.0 0.00 0.00 0.00 31 982.5
20260905004507 81 141 7.0 21.0 0.00 0.00 0.00 31 982.6
20260905004503 81 340 4.0 21.0 0.00 0.00 0.00 32 982.6
20260905003504 82 209 4.0 17.0 0.00 0.00 0.00 31 982.6
20260905003001 82 185 1.0 8.0 0.00 0.00 0.00 29 982.7
20260905002501 82 189 1.0 4.0 0.00 0.00 0.00 28 982.6
20260905002002 83 176 1.0 4.0 0.00 0.00 0.00 28 982.5
20260905001501 83 191 1.0 4.0 0.00 0.00 0.00 28 982.5
20260905001001 84 188 1.0 5.0 0.00 0.00 0.00 27 982.5
20260905000502 85 200 0.0 5.0 0.00 0.00 0.00 25 982.5
20260905000001 86 210 0.0 1.0 0.00 0.00 0.00 25 982.2
20260904235502 87 141 0.0 1.0 0.00 0.00 0.00 24 982.1
20260904235001 88 130 0.0 3.0 0.00 0.00 0.00 24 982.1
20260904234505 88 146 0.0 3.0 0.00 0.00 0.00 24 982.2
20260904234501 89 122 0.0 5.0 0.00 0.00 0.00 23 982.1
20260904233503 91 143 0.0 4.0 0.00 0.00 0.00 22 982.0
20260904233459 90 164 0.0 5.0 0.00 0.00 0.00 22 982.0
20260904232459 91 297 0.0 3.0 0.00 0.00 0.00 22 982.0
20260904231959 90 219 0.0 3.0 0.00 0.00 0.00 23 982.0
20260904231459 91 35 0.0 3.0 0.00 0.00 0.00 22 982.0
20260904231001 91 195 0.0 1.0 0.00 0.00 0.00 22 982.0
20260904230503 89 199 0.0 0.0 0.00 0.00 0.00 23 982.0
20260904230459 91 130 0.0 1.0 0.00 0.00 0.00 22 982.0
20260904225458 87 141 0.0 0.0 0.00 0.00 0.00 24 982.0
20260904225001 86 140 1.0 6.0 0.00 0.00 0.00 23 982.1
20260904224957 86 158 1.0 6.0 0.00 0.00 0.00 24 982.1
20260904224603 87 246 0.0 6.0 0.00 0.00 0.00 23 982.1
20260904223501 89 153 1.0 5.0 0.00 0.00 0.00 21 982.0
20260904223457 88 142 0.0 6.0 0.00 0.00 0.00 22 982.1
20260904222456 91 147 0.0 6.0 0.00 0.00 0.00 20 982.1
20260904221956 92 142 1.0 6.0 0.00 0.00 0.00 20 982.1
20260904221500 92 174 3.0 10.0 0.00 0.00 0.00 20 982.2
20260904221455 92 146 1.0 6.0 0.00 0.00 0.00 21 982.1
20260904220955 92 217 2.0 10.0 0.00 0.00 0.00 21 982.1
20260904220600 93 189 2.0 9.0 0.00 0.00 0.00 20 982.2
20260904215455 93 117 1.0 4.0 0.00 0.00 0.00 20 982.2
20260904214955 92 137 1.0 5.0 0.00 0.00 0.00 20 982.4
20260904214455 92 199 1.0 6.0 0.00 0.00 0.00 20 982.4
20260904213955 91 221 1.0 6.0 0.00 0.00 0.00 21 982.4
20260904213453 91 72 1.0 6.0 0.00 0.00 0.00 21 982.4
20260904212956 89 204 2.0 11.0 0.00 0.00 0.00 21 982.5
20260904212952 90 208 3.0 11.0 0.00 0.00 0.00 21 982.5
20260904211952 89 141 1.0 6.0 0.00 0.00 0.00 22 982.6
20260904211452 90 168 0.0 5.0 0.00 0.00 0.00 22 982.6
20260904210953 89 146 0.0 5.0 0.00 0.00 0.00 22 982.6
20260904210453 88 122 1.0 6.0 0.00 0.00 0.00 22 982.7
20260904205952 88 134 2.0 7.0 0.00 0.00 0.00 22 982.8
20260904205453 88 191 1.0 7.0 0.00 0.00 0.00 21 983.0
20260904204953 88 195 0.0 5.0 0.00 0.00 0.00 24 983.0
20260904204453 87 175 1.0 5.0 0.00 0.00 0.00 23 983.1
20260904203953 87 132 2.0 9.0 0.00 0.00 0.00 23 983.1
20260904203453 88 174 3.0 9.0 0.00 0.00 0.00 23 983.1
20260904202953 89 160 3.0 9.0 0.00 0.00 0.00 21 983.1
20260904202453 89 179 2.0 8.0 0.00 0.00 0.00 21 983.1
20260904201952 89 137 2.0 8.0 0.00 0.00 0.00 22 983.1
20260904201453 88 129 1.0 8.0 0.00 0.00 0.00 22 983.2
20260904200953 88 202 3.0 13.0 0.00 0.00 0.00 21 983.1
20260904195953 88 155 5.0 11.0 0.00 0.00 0.00 22 983.3
20260904195452 87 242 5.0 11.0 0.00 0.00 0.00 22 983.3
20260904194953 86 212 3.0 10.0 0.00 0.00 0.00 23 983.5
20260904194458 86 214 4.0 12.0 0.00 0.00 0.00 22 983.4
20260904194452 86 217 2.0 8.0 0.00 0.00 0.00 22 983.4
20260904193600 85 173 2.0 8.0 0.00 0.00 0.00 23 983.5
20260904193458 87 205 2.0 8.0 0.00 0.00 0.00 23 983.5
20260904193452 87 150 4.0 12.0 0.00 0.00 0.00 22 983.5
20260904191952 85 240 2.0 8.0 0.00 0.00 0.00 21 983.7
20260904191452 86 224 3.0 8.0 0.00 0.00 0.00 21 983.7
20260904190952 87 186 4.0 13.0 0.00 0.00 0.00 21 983.7
20260904190452 87 290 4.0 13.0 0.00 0.00 0.00 21 983.8
20260904185958 86 206 3.0 12.0 0.00 0.00 0.00 21 983.8
20260904185953 87 218 2.0 10.0 0.00 0.00 0.00 21 983.8
20260904184953 86 280 5.0 17.0 0.00 0.00 0.00 21 984.0
20260904184454 87 214 3.0 17.0 0.00 0.00 0.00 22 984.0
20260904183953 87 193 2.0 10.0 0.00 0.00 0.00 21 984.0
20260904183453 86 131 3.0 17.0 0.00 0.00 0.00 23 984.0
20260904182950 86 259 3.0 17.0 0.00 0.00 0.00 21 984.0
20260904182450 86 164 2.0 7.0 0.00 0.00 0.00 21 984.1
20260904181950 85 197 2.0 9.0 0.00 0.00 0.00 22 984.3
20260904181447 85 304 2.0 9.0 0.00 0.00 0.00 21 984.4
20260904180951 85 297 2.0 8.0 0.00 0.00 0.00 22 984.5
20260904180946 85 285 2.0 9.0 0.00 0.00 0.00 22 984.4
20260904180446 84 319 2.0 9.0 0.00 0.00 0.00 22 984.5
20260904180052 85 320 1.0 8.0 0.00 0.00 0.00 22 984.6
20260904174950 85 195 4.0 10.0 0.00 0.00 0.00 21 984.7
20260904174946 85 224 1.0 11.0 0.00 0.00 0.00 21 984.6
20260904174444 84 250 3.0 11.0 0.00 0.00 0.00 21 984.6
20260904173941 84 195 4.0 10.0 0.00 0.00 0.00 21 984.7
20260904172941 84 232 3.0 9.0 0.00 0.00 0.00 21 984.7
20260904171944 83 179 2.0 8.0 0.00 0.00 0.00 22 984.8
20260904171940 83 152 3.0 12.0 0.00 0.00 0.00 22 984.7
20260904171546 83 256 2.0 8.0 0.00 0.00 0.00 23 984.7
20260904170937 83 202 2.0 8.0 0.00 0.00 0.00 23 984.7
20260904165936 83 236 2.0 8.0 0.00 0.00 0.00 23 984.7
20260904165441 82 236 2.0 9.0 0.00 0.00 0.00 23 984.7
20260904165437 83 222 2.0 7.0 0.00 0.00 0.00 23 984.7
20260904164436 82 113 3.0 9.0 0.00 0.00 0.00 23 984.7
20260904163936 82 214 4.0 8.0 0.00 0.00 0.00 24 984.8
20260904163435 82 222 2.0 8.0 0.00 0.00 0.00 24 984.7
20260904162934 81 212 1.0 6.0 0.00 0.00 0.00 24 984.8
20260904162434 81 229 1.0 6.0 0.00 0.00 0.00 24 984.7
20260904161934 81 46 2.0 7.0 0.00 0.00 0.00 23 984.8
20260904161434 81 198 3.0 8.0 0.00 0.00 0.00 24 984.7
20260904160934 81 198 1.0 8.0 0.00 0.00 0.00 24 984.7
20260904160436 81 192 1.0 6.0 0.00 0.00 0.00 25 984.8
20260904155934 81 259 1.0 6.0 0.00 0.00 0.00 24 984.8
20260904155438 80 217 2.0 6.0 0.00 0.00 0.00 25 984.7
20260904155434 80 240 1.0 6.0 0.00 0.00 0.00 24 984.8
20260904155039 80 207 2.0 9.0 0.00 0.00 0.00 24 984.8
20260904153936 79 261 3.0 8.0 0.00 0.00 0.00 23 984.8
20260904153932 80 161 3.0 9.0 0.00 0.00 0.00 25 984.8
20260904152932 79 186 3.0 8.0 0.00 0.00 0.00 25 984.7
20260904152432 78 192 4.0 9.0 0.00 0.00 0.00 24 984.7
20260904151936 78 207 3.0 9.0 0.00 0.00 0.00 26 984.7
20260904151932 78 195 4.0 9.0 0.00 0.00 0.00 25 984.7
20260904150932 77 171 2.0 7.0 0.00 0.00 0.00 27 984.7
20260904150432 76 232 1.0 5.0 0.00 0.00 0.00 27 984.7
20260904145932 76 194 2.0 6.0 0.00 0.00 0.00 29 984.7
20260904145432 75 197 1.0 5.0 0.00 0.00 0.00 30 984.7
20260904144932 74 186 1.0 4.0 0.00 0.00 0.00 30 984.8
20260904144433 73 220 1.0 4.0 0.00 0.00 0.00 30 984.7
20260904143931 71 203 0.0 3.0 0.00 0.00 0.00 31 984.7
20260904143432 71 214 0.0 4.0 0.00 0.00 0.00 31 984.7
20260904142932 70 221 0.0 4.0 0.00 0.00 0.00 32 984.7
20260904142538 67 243 0.0 1.0 0.00 0.00 0.00 35 984.7
20260904142437 68 356 0.0 1.0 0.00 0.00 0.00 34 984.6
20260904142432 69 243 0.0 1.0 0.00 0.00 0.00 32 984.7
20260904141537 65 187 0.0 1.0 0.00 0.00 0.00 40 984.5
20260904140432 63 129 0.0 0.0 0.00 0.00 0.00 44 984.5
20260904135931 63 159 0.0 0.0 0.00 0.00 0.00 44 984.5
20260904135432 63 159 0.0 0.0 0.00 0.00 0.00 44 984.4
20260904134933 63 135 0.0 0.0 0.00 0.00 0.00 44 984.4
20260904134431 62 155 0.0 0.0 0.00 0.00 0.00 42 984.4
20260904133936 60 154 0.0 0.0 0.00 0.00 0.00 43 984.3
20260904133932 61 154 0.0 0.0 0.00 0.00 0.00 41 984.3
20260904132936 60 154 0.0 0.0 0.00 0.00 0.00 45 984.1
20260904132932 60 154 0.0 0.0 0.00 0.00 0.00 44 984.1
20260904131932 60 154 0.0 0.0 0.00 0.00 0.00 45 984.1
20260904131431 60 111 0.0 0.0 0.00 0.00 0.00 44 984.0
20260904130936 59 184 0.0 0.0 0.00 0.00 0.00 43 983.7
20260904130932 60 188 0.0 0.0 0.00 0.00 0.00 43 983.8
20260904125931 60 295 0.0 0.0 0.00 0.00 0.00 41 983.7
20260904125432 60 295 0.0 0.0 0.00 0.00 0.00 40 983.5
20260904124931 61 295 0.0 0.0 0.00 0.00 0.00 39 983.5
20260904124432 62 322 0.0 0.0 0.00 0.00 0.00 37 983.4
20260904123931 63 322 0.0 3.0 0.00 0.00 0.00 36 983.4
20260904123432 64 323 0.0 4.0 0.00 0.00 0.00 35 983.3
20260904122932 64 244 0.0 4.0 0.00 0.00 0.00 34 983.2
20260904122432 64 252 0.0 3.0 0.00 0.00 0.00 35 983.2
20260904121932 64 229 0.0 2.0 0.00 0.00 0.00 34 983.2
20260904121432 65 180 0.0 4.0 0.00 0.00 0.00 33 983.2
20260904120931 65 195 0.0 4.0 0.00 0.00 0.00 33 983.0
20260904120437 65 279 2.0 7.0 0.00 0.00 0.00 33 982.8
20260904120432 65 206 1.0 7.0 0.00 0.00 0.00 33 983.1
20260904115436 65 179 2.0 6.0 0.00 0.00 0.00 33 982.7
20260904115432 65 212 2.0 6.0 0.00 0.00 0.00 34 983.0
20260904115038 66 203 2.0 6.0 0.00 0.00 0.00 32 982.8
20260904113931 65 200 1.0 5.0 0.00 0.00 0.00 33 982.8
20260904113429 65 242 0.0 3.0 0.00 0.00 0.00 33 982.8
20260904112929 65 232 1.0 4.0 0.00 0.00 0.00 33 982.8
20260904112430 66 224 1.0 5.0 0.00 0.00 0.00 32 982.8
20260904111930 65 171 1.0 5.0 0.00 0.00 0.00 33 983.0
20260904111429 65 208 0.0 3.0 0.00 0.00 0.00 33 983.0
20260904110929 65 231 0.0 3.0 0.00 0.00 0.00 33 982.8
20260904110434 66 259 0.0 2.0 0.00 0.00 0.00 33 982.8
20260904110429 66 293 0.0 3.0 0.00 0.00 0.00 32 982.8
20260904105430 66 198 0.0 2.0 0.00 0.00 0.00 32 982.8
20260904104930 66 216 0.0 1.0 0.00 0.00 0.00 32 982.7
20260904104431 67 281 0.0 2.0 0.00 0.00 0.00 32 982.8
20260904103928 67 233 0.0 3.0 0.00 0.00 0.00 31 982.6
20260904103428 67 235 2.0 6.0 0.00 0.00 0.00 31 982.6
20260904102928 67 200 3.0 6.0 0.00 0.00 0.00 31 982.5
20260904102428 67 184 2.0 5.0 0.00 0.00 0.00 31 982.4
20260904101927 67 199 2.0 6.0 0.00 0.00 0.00 31 982.1
20260904101428 67 215 2.0 6.0 0.00 0.00 0.00 31 982.1
20260904100927 67 206 2.0 6.0 0.00 0.00 0.00 31 982.1
20260904100427 67 224 2.0 6.0 0.00 0.00 0.00 31 982.0
20260904095926 68 203 2.0 4.0 0.00 0.00 0.00 31 982.0
20260904095426 68 199 1.0 5.0 0.00 0.00 0.00 31 982.0
20260904094925 68 219 1.0 5.0 0.00 0.00 0.00 31 982.1
20260904094424 68 245 2.0 4.0 0.00 0.00 0.00 32 982.0
20260904093924 68 187 2.0 4.0 0.00 0.00 0.00 31 982.0
20260904093429 69 218 1.0 6.0 0.00 0.00 0.00 31 981.9
20260904093423 69 195 1.0 4.0 0.00 0.00 0.00 31 981.9
20260904093029 69 225 2.0 6.0 0.00 0.00 0.00 30 981.9
20260904091923 69 205 3.0 8.0 0.00 0.00 0.00 30 981.9
20260904091422 70 174 4.0 9.0 0.00 0.00 0.00 30 981.8
20260904090925 69 205 3.0 7.0 0.00 0.00 0.00 32 981.7
20260904090921 69 198 3.0 9.0 0.00 0.00 0.00 31 981.8
20260904085922 69 189 2.0 4.0 0.00 0.00 0.00 32 981.7
20260904085421 69 202 1.0 4.0 0.00 0.00 0.00 32 981.7
20260904084920 69 204 2.0 4.0 0.00 0.00 0.00 33 981.5
20260904084419 69 219 2.0 6.0 0.00 0.00 0.00 33 981.5
20260904083924 68 213 1.0 4.0 0.00 0.00 0.00 36 981.5
20260904083919 69 200 3.0 6.0 0.00 0.00 0.00 34 981.5
20260904083419 69 172 2.0 5.0 0.00 0.00 0.00 34 981.5
20260904082424 65 199 0.0 2.0 0.00 0.00 0.00 42 981.7
20260904082419 66 196 0.0 3.0 0.00 0.00 0.00 39 981.5
20260904081419 65 203 0.0 0.0 0.00 0.00 0.00 44 981.7
20260904080920 66 203 0.0 0.0 0.00 0.00 0.00 44 981.5
20260904080419 68 203 0.0 0.0 0.00 0.00 0.00 43 981.7
20260904075919 68 203 1.0 5.0 0.00 0.00 0.00 41 981.7
20260904075417 69 199 2.0 5.0 0.00 0.00 0.00 42 981.5
20260904074917 69 192 3.0 5.0 0.00 0.00 0.00 43 981.5
20260904074417 69 188 3.0 7.0 0.00 0.00 0.00 44 981.5
20260904073917 69 200 3.0 7.0 0.00 0.00 0.00 44 981.5
20260904073417 69 176 3.0 8.0 0.00 0.00 0.00 44 981.7
20260904072922 69 210 3.0 8.0 0.00 0.00 0.00 44 981.7
20260904072918 69 205 3.0 8.0 0.00 0.00 0.00 44 981.7
20260904071921 69 200 2.0 7.0 0.00 0.00 0.00 44 981.7
20260904071917 69 198 3.0 7.0 0.00 0.00 0.00 44 981.8
20260904070917 69 142 1.0 5.0 0.00 0.00 0.00 44 981.7
20260904070415 70 184 2.0 8.0 0.00 0.00 0.00 43 981.9
20260904065915 70 190 4.0 8.0 0.00 0.00 0.00 42 981.9
20260904065415 70 214 4.0 9.0 0.00 0.00 0.00 42 982.0
20260904064916 71 189 5.0 11.0 0.00 0.00 0.00 42 982.0
20260904064415 71 191 5.0 11.0 0.00 0.00 0.00 42 982.0
20260904063915 70 205 4.0 10.0 0.00 0.00 0.00 42 981.9
20260904063415 70 194 4.0 10.0 0.00 0.00 0.00 42 981.9
20260904062915 71 162 5.0 10.0 0.00 0.00 0.00 41 981.9
20260904062413 71 215 4.0 10.0 0.00 0.00 0.00 41 981.9
20260904061913 71 134 4.0 8.0 0.00 0.00 0.00 41 981.9
20260904061411 71 163 4.0 11.0 0.00 0.00 0.00 41 981.9
20260904060411 71 213 5.0 11.0 0.00 0.00 0.00 40 981.9
20260904055909 71 198 5.0 10.0 0.00 0.00 0.00 40 981.9
20260904055407 72 146 5.0 13.0 0.00 0.00 0.00 40 982.0
20260904054908 72 191 5.0 13.0 0.00 0.00 0.00 39 981.9
20260904054408 72 195 5.0 13.0 0.00 0.00 0.00 39 982.0
20260904053908 72 141 5.0 13.0 0.00 0.00 0.00 39 982.0
20260904053408 72 154 5.0 12.0 0.00 0.00 0.00 39 982.0